"2010-02-15 00:00:00",1682199,3.875,31.16,12.28,1.307,-3.044,98.18509,-5.323,-3.963,37.63,0,109.4,13.66,-4.59,353.2
"2010-02-15 00:00:30",1682200,4.413,355.6,9.95,1,-1.876,98.1876,-5.317,-3.958,37.67,0,109.4,13.65,-4.58,317.6
"2010-02-15 00:01:00",1682201,4.681,21.33,14.63,1.451,-1.723,98.18332,-5.328,-3.978,37.75,0,109.4,13.65,-4.59,343.3
"2010-02-15 00:01:30",1682202,4.899,40,6.837,1.062,-2.56,98.16514,-5.374,-4.021,37.73,0,109.4,13.65,-4.64,2.0
"2010-02-15 00:02:00",1682203,4.041,4.411,20.18,1.205,-1.918,98.15889,-5.39,-4.008,37.64,0,109.4,13.65,-4.66,326.4
"2010-02-15 00:02:30",1682204,3.109,11.71,16.35,1.19,-2.788,98.15916,-5.389,-4.157,37.53,0,109.4,13.65,-4.66,333.7
"2010-02-15 00:03:00",1682205,4.195,357.9,26.39,1.22,-2.695,98.15916,-5.389,-4.078,37.73,0,109.4,13.65,-4.66,319.9
"2010-02-15 00:03:30",1682206,4.257,10.68,20.89,1.047,-2.457,98.15943,-5.388,-4.059,37.98,0,109.4,13.65,-4.66,332.7
"2010-02-15 00:04:00",1682207,3.959,348.5,16.31,1.312,-2.636,98.14244,-5.432,-4.055,38.06,0,109.4,13.65,-4.70,310.5
"2010-02-15 00:04:30",1682208,3.919,343.5,11.34,1.387,-3.144,98.13168,-5.459,-4.137,38.11,0,109.4,13.65,-4.73,305.5
"2010-02-15 00:05:00",1682209,4.362,349.8,9.64,1.054,-3.255,98.12517,-5.476,-4.209,38.21,0,109.4,13.66,-4.74,311.8
"2010-02-15 00:05:30",1682210,4.264,353.5,13.74,1.055,-2.484,98.12543,-5.475,-4.149,38.38,0,109.4,13.66,-4.74,315.5
"2010-02-15 00:06:00",1682211,2.55,7.85,12.21,1.034,-2.71,98.1246,-5.477,-4.136,38.48,0,109.4,13.67,-4.74,329.9
"2010-02-15 00:06:30",1682212,3.766,17.25,6.898,0.978,-2.931,98.12346,-5.48,-4.165,38.59,0,109.4,13.67,-4.75,339.2
"2010-02-15 00:07:00",1682213,3.338,25.58,5.55,1.268,-4.95,98.10869,-5.518,-4.26,38.61,0,109.4,13.67,-4.79,347.6
"2010-02-15 00:07:30",1682214,3.624,24.66,13.52,1.287,-3.287,98.09282,-5.558,-4.195,38.7,0,109.4,13.67,-4.83,346.7
"2010-02-15 00:08:00",1682215,3.687,7.001,19.73,1.228,-3.249,98.09254,-5.559,-4.215,38.78,0,109.4,13.67,-4.83,329.0
"2010-02-15 00:08:30",1682216,3.362,11.07,15.12,0.79,-1.095,98.09394,-5.555,-4.174,38.91,0,109.4,13.67,-4.82,333.1
"2010-02-15 00:09:00",1682217,2.999,0.716,14.65,1.199,-3.173,98.09533,-5.552,-4.249,38.92,0,109.4,13.67,-4.82,322.7
"2010-02-15 00:09:30",1682218,3.191,335.9,10.89,1.104,-4.238,98.08144,-5.587,-4.294,39.04,0,109.4,13.67,-4.85,297.9
"2010-02-15 00:10:00",1682219,2.821,348.2,13.28,1.737,-4.615,98.06245,-5.635,-4.344,39.19,0,109.4,13.67,-4.90,310.2
"2010-02-15 00:10:30",1682220,2.894,12.68,13.24,1.596,-2.376,98.06188,-5.637,-4.31,39.33,0,109.4,13.67,-4.90,334.7
"2010-02-15 00:11:00",1682221,3.455,25.2,8.38,1.238,-2.643,98.06188,-5.637,-4.308,39.43,0,109.5,13.67,-4.90,347.2
"2010-02-15 00:11:30",1682222,4.018,9.82,11.78,1.248,-2.399,98.06075,-5.64,-4.317,39.55,0,109.4,13.67,-4.91,331.8
"2010-02-15 00:12:00",1682223,4.129,18.95,20.58,1.622,-2.694,98.04913,-5.669,-4.301,39.66,0,109.4,13.67,-4.94,341.0
"2010-02-15 00:12:30",1682224,3.243,36.98,6.471,1.14,-4.105,98.03836,-5.697,-4.353,39.53,0,109.4,13.67,-4.96,359.0
"2010-02-15 00:13:00",1682225,3.026,4.005,17.39,1.159,-2.354,98.02987,-5.718,-4.354,39.6,0,109.4,13.67,-4.99,326.0
"2010-02-15 00:13:30",1682226,4.364,359.5,10.93,1.107,-2.216,98.02788,-5.723,-4.43,39.59,0,109.4,13.67,-4.99,321.5
"2010-02-15 00:14:00",1682227,3.758,5.973,14.25,1.07,-2.754,98.0276,-5.724,-4.43,39.64,0,109.4,13.68,-4.99,328.0
"2010-02-15 00:14:30",1682228,3.139,19.79,14.81,1.182,-2.512,98.01683,-5.751,-4.4,39.79,0,109.4,13.68,-5.02,341.8
"2010-02-15 00:15:00",1682229,3.19,31.82,18.46,1.071,-2.6,98.00266,-5.788,-4.399,39.88,0,109.4,13.68,-5.06,353.8
"2010-02-15 00:15:30",1682230,3.101,8.47,16.57,1.306,-3.022,97.99416,-5.809,-4.506,39.86,0,109.4,13.67,-5.08,330.5
"2010-02-15 00:16:00",1682231,1.376,15.69,18.73,0.932,-5.235,97.99388,-5.81,-4.548,39.85,0,109.4,13.68,-5.08,337.7
"2010-02-15 00:16:30",1682232,2.356,9.08,9.54,0.982,-3.886,97.99388,-5.81,-4.512,39.99,0,109.4,13.68,-5.08,331.1
"2010-02-15 00:17:00",1682233,4.379,31.74,11.06,1.492,-2.332,97.98509,-5.832,-4.457,40.16,0,109.4,13.68,-5.10,353.7
"2010-02-15 00:17:30",1682234,6.665,40.79,5.183,0.827,-1.549,97.97291,-5.863,-4.47,39.49,0,109.4,13.68,-5.13,2.8
"2010-02-15 00:18:00",1682235,6.021,39.98,7.651,0.839,-0.785,97.96214,-5.891,-4.439,38.59,0,109.4,13.67,-5.16,2.0
"2010-02-15 00:18:30",1682236,4.877,35.34,6.109,0.771,-0.672,97.95987,-5.896,-4.44,38.24,0,109.4,13.67,-5.17,357.3
"2010-02-15 00:19:00",1682237,3.846,18.43,14.27,1.069,-1.152,97.95817,-5.901,-4.471,38.34,0,109.4,13.67,-5.17,340.4
"2010-02-15 00:19:30",1682238,5.845,51.28,5.733,0.803,-1.749,97.93692,-5.955,-4.485,38.6,0,109.4,13.67,-5.22,13.3
"2010-02-15 00:20:00",1682239,4.167,42.98,8.7,1.375,-4.142,97.92587,-5.983,-4.708,38.22,0,109.4,13.67,-5.25,5.0
"2010-02-15 00:20:30",1682240,3.276,32.3,6.776,0.86,-4.282,97.92615,-5.982,-4.666,38.65,0,109.4,13.67,-5.25,354.3
"2010-02-15 00:21:00",1682241,4.364,32.63,15.7,1.685,-2.618,97.9185,-6.002,-4.688,39.41,0,109.4,13.67,-5.27,354.6
"2010-02-15 00:21:30",1682242,6.214,53.55,3.649,0.767,-0.72,97.90257,-6.042,-4.56,39.28,0,109.4,13.68,-5.31,15.5
"2010-02-15 00:22:00",1682243,6.523,45.22,4.259,0.759,-0.403,97.89714,-6.056,-4.598,39.16,0,109.4,13.68,-5.33,7.2
"2010-02-15 00:22:30",1682244,5.332,44.53,10.65,0.838,-0.432,97.89596,-6.059,-4.618,39.36,0,109.4,13.68,-5.33,6.5
"2010-02-15 00:23:00",1682245,6.36,53.82,3.309,0.818,-0.574,97.87717,-6.107,-4.628,39.51,0,109.3,13.68,-5.38,15.8
"2010-02-15 00:23:30",1682246,6.799,57.42,4.862,0.494,-0.558,97.87423,-6.114,-4.679,39.1,0,109.3,13.68,-5.38,19.4
"2010-02-15 00:24:00",1682247,5.982,58.96,5.646,0.852,-0.461,97.8693,-6.127,-4.672,38.87,0,109.3,13.68,-5.40,21.0
"2010-02-15 00:24:30",1682248,5.575,58.19,7.502,0.745,-0.419,97.84942,-6.178,-4.722,39.02,0,109.3,13.68,-5.45,20.2
"2010-02-15 00:25:00",1682249,5.028,30.06,16.63,0.95,-0.409,97.84854,-6.18,-4.733,39.25,0,109.3,13.68,-5.45,352.1
"2010-02-15 00:25:30",1682250,3.41,19.96,15.59,0.666,-0.789,97.82952,-6.228,-4.749,39.85,0,109.3,13.68,-5.50,342.0
"2010-02-15 00:26:00",1682251,1.737,21.63,17.43,0.73,-5.689,97.82201,-6.247,-5.046,39.94,0,109.3,13.71,-5.52,343.6
"2010-02-15 00:26:30",1682252,1.923,13.1,16.73,0.42,-5.791,97.82174,-6.248,-5.113,39.96,0,109.3,13.72,-5.52,335.1
"2010-02-15 00:27:00",1682253,2.269,5.194,18.47,1.38,-3.669,97.81406,-6.268,-5.021,40.12,0,109.3,13.69,-5.54,327.2
"2010-02-15 00:27:30",1682254,3.009,23.64,13.82,0.901,-0.611,97.79337,-6.32,-4.848,40.42,0,109.3,13.69,-5.59,345.6
"2010-02-15 00:28:00",1682255,3.586,22.17,13.4,0.881,-0.305,97.78911,-6.331,-4.871,40.47,0,109.3,13.7,-5.60,344.2
"2010-02-15 00:28:30",1682256,3.41,18.62,13.6,0.691,-0.586,97.78911,-6.331,-4.914,40.65,0,109.3,13.7,-5.60,340.6
"2010-02-15 00:29:00",1682257,4.588,37.04,6.296,0.915,-1.747,97.77352,-6.371,-4.922,40.84,0,109.3,13.7,-5.64,359.0
"2010-02-15 00:29:30",1682258,2.989,28.02,11.41,1.554,-3.821,97.7551,-6.418,-5.129,40.68,0,109.3,13.7,-5.69,350.0
"2010-02-15 00:30:00",1682259,1.867,17.16,15.44,0.646,-6.086,97.7551,-6.418,-5.277,40.56,0,109.3,13.73,-5.69,339.2
"2010-02-15 00:30:30",1682260,3.31,36.37,7.927,1.261,-3.705,97.74319,-6.448,-5.053,41.05,0,109.3,13.7,-5.72,358.4
"2010-02-15 00:31:00",1682261,4.281,33.85,7.404,0.989,-1.591,97.72166,-6.503,-5.083,41.14,0,109.3,13.7,-5.77,355.9
"2010-02-15 00:31:30",1682262,4.762,36.26,9.46,0.539,-0.436,97.72108,-6.504,-5.042,41.22,0,109.2,13.71,-5.78,358.3
"2010-02-15 00:32:00",1682263,5.324,54.77,5.56,0.541,-0.257,97.69727,-6.565,-5.075,40.98,0,109.3,13.71,-5.84,16.8
"2010-02-15 00:32:30",1682264,5.258,53.61,7.329,0.719,-0.345,97.68707,-6.591,-5.114,40.8,0,109.3,13.71,-5.86,15.6
"2010-02-15 00:33:00",1682265,4.589,44.63,11.93,0.742,-0.499,97.6814,-6.605,-5.126,40.88,0,109.3,13.7,-5.88,6.6
"2010-02-15 00:33:30",1682266,4.521,56.42,4.463,0.698,-1.027,97.65561,-6.671,-5.163,40.97,0,109.2,13.7,-5.94,18.4
"2010-02-15 00:34:00",1682267,2.749,43.11,10.88,1.246,-3.326,97.65306,-6.677,-5.397,40.38,0,109.3,13.7,-5.95,5.1
"2010-02-15 00:34:30",1682268,2.862,36.96,6.274,1.282,-4.892,97.64001,-6.71,-5.37,40.31,0,109.3,13.7,-5.98,359.0
"2010-02-15 00:35:00",1682269,4.501,32.77,7.692,1.12,-2.415,97.61904,-6.764,-5.371,40.5,0,109.2,13.7,-6.04,354.8
"2010-02-15 00:35:30",1682270,5.229,35.84,5.532,0.79,-0.47,97.62043,-6.76,-5.286,40.78,0,109.3,13.71,-6.03,357.8
"2010-02-15 00:36:00",1682271,5.683,39.32,4.322,0.407,-0.072,97.60397,-6.802,-5.281,40.56,0,109.2,13.71,-6.07,1.3
"2010-02-15 00:36:30",1682272,4.786,43.62,5.153,0.832,0.034,97.58809,-6.843,-5.34,40.37,0,109.2,13.71,-6.11,5.6
"2010-02-15 00:37:00",1682273,5.213,49.97,7.069,0.866,-0.589,97.59029,-6.837,-5.368,40.47,0,109.2,13.71,-6.11,12.0
"2010-02-15 00:37:30",1682274,4.891,46.04,8.6,0.828,-0.753,97.58187,-6.858,-5.378,40.6,0,109.2,13.71,-6.13,8.0
"2010-02-15 00:38:00",1682275,5.319,50.09,5.743,0.889,-2.048,97.56789,-6.894,-5.466,40.62,0,109.2,13.71,-6.17,12.1
"2010-02-15 00:38:30",1682276,4.643,45.77,4.442,1.111,-3.165,97.57121,-6.886,-5.652,40.41,0,109.2,13.71,-6.16,7.8
"2010-02-15 00:39:00",1682277,4.598,52.39,9.24,1.112,-3.14,97.56744,-6.895,-5.573,40.52,0,109.2,13.72,-6.17,14.4
"2010-02-15 00:39:30",1682278,6.22,58.66,4.358,0.794,-0.289,97.55092,-6.937,-5.493,40.35,0,109.2,13.72,-6.21,20.7
"2010-02-15 00:40:00",1682279,5.843,57.36,4.572,0.664,0.47,97.54299,-6.957,-5.493,40.18,0,109.2,13.72,-6.23,19.4
"2010-02-15 00:40:30",1682280,5.255,54.7,4.822,0.621,0.473,97.54244,-6.959,-5.523,40.27,0,109.2,13.73,-6.23,16.7
"2010-02-15 00:41:00",1682281,4.877,56.74,8.33,0.715,0.273,97.54131,-6.962,-5.537,40.51,0,109.2,13.72,-6.23,18.7
"2010-02-15 00:41:30",1682282,4.03,59.03,11.84,0.83,-0.285,97.53191,-6.986,-5.555,40.77,0,109.2,13.73,-6.26,21.0
"2010-02-15 00:42:00",1682283,2.862,33.58,8.65,0.971,-3.08,97.51881,-7.019,-5.754,40.75,0,109.2,13.73,-6.29,355.6
"2010-02-15 00:42:30",1682284,2.809,34.58,4.021,0.271,-5.629,97.51646,-7.025,-5.824,40.94,0,109.2,13.76,-6.30,356.6
"2010-02-15 00:43:00",1682285,3.497,45.44,4.741,0.906,-3.989,97.51588,-7.026,-5.717,41.41,0,109.2,13.73,-6.30,7.4
"2010-02-15 00:43:30",1682286,4.199,61.56,9.68,0.795,-0.25,97.51615,-7.026,-5.62,41.74,0,109.2,13.73,-6.30,23.6
"2010-02-15 00:44:00",1682287,4.708,66.23,6.065,0.879,-0.028,97.51615,-7.026,-5.6,41.65,0,109.2,13.73,-6.30,28.2
"2010-02-15 00:44:30",1682288,5.61,60.06,6.134,0.754,-0.054,97.51615,-7.026,-5.635,41.72,0,109.2,13.73,-6.30,22.1
"2010-02-15 00:45:00",1682289,5.444,59.76,5.265,0.607,-0.004,97.5136,-7.032,-5.653,41.92,0,109.2,13.73,-6.30,21.8
"2010-02-15 00:45:30",1682290,5.359,56.49,6.266,0.519,-0.206,97.50198,-7.062,-5.675,41.89,0,109.2,13.73,-6.33,18.5
"2010-02-15 00:46:00",1682291,5.114,46.83,10.88,0.67,-0.572,97.49178,-7.088,-5.667,42.08,0,109.2,13.73,-6.36,8.8
"2010-02-15 00:46:30",1682292,5.616,56.47,6.154,0.695,-0.91,97.48781,-7.098,-5.676,42.36,0,109.2,13.73,-6.37,18.5
"2010-02-15 00:47:00",1682293,5.24,57.43,4.976,0.725,-1.018,97.48298,-7.11,-5.684,42.67,0,109.2,13.73,-6.38,19.4
"2010-02-15 00:47:30",1682294,5.102,52.54,7.934,0.641,-1.115,97.48352,-7.109,-5.695,42.83,0,109.1,13.73,-6.38,14.5
"2010-02-15 00:48:00",1682295,5.937,61.49,5.066,0.61,-1.193,97.48296,-7.11,-5.693,42.81,0,109.2,13.73,-6.38,23.5
"2010-02-15 00:48:30",1682296,5.412,57.83,5.007,0.672,-1.283,97.48352,-7.109,-5.712,42.69,0,109.2,13.73,-6.38,19.8
"2010-02-15 00:49:00",1682297,4.306,52.81,6.852,0.716,-1.39,97.48269,-7.111,-5.716,42.88,0,109.2,13.74,-6.38,14.8
"2010-02-15 00:49:30",1682298,2.755,38.78,9.48,1.196,-4.232,97.4818,-7.113,-5.845,42.88,0,109.2,13.73,-6.39,0.8
"2010-02-15 00:50:00",1682299,2.738,46.13,4.18,0.384,-5.879,97.46616,-7.153,-6.028,42.73,0,109.2,13.76,-6.43,8.1
"2010-02-15 00:50:30",1682300,4.097,43.31,10.9,1.059,-2.558,97.45449,-7.183,-5.913,42.92,0,109.2,13.74,-6.46,5.3
"2010-02-15 00:51:00",1682301,5.603,56.93,4.377,0.853,-0.492,97.46276,-7.162,-5.763,43.01,0,109.2,13.74,-6.43,18.9
"2010-02-15 00:51:30",1682302,5.762,62.76,7.184,0.667,0.069,97.46911,-7.145,-5.762,42.65,0,109.2,13.74,-6.42,24.8
"2010-02-15 00:52:00",1682303,5,57.75,11.15,0.843,0.042,97.47381,-7.133,-5.764,42.44,0,109.2,13.74,-6.41,19.8
"2010-02-15 00:52:30",1682304,5.265,54.79,7.242,0.576,-0.13,97.47464,-7.131,-5.779,42.29,0,109.2,13.74,-6.40,16.8
"2010-02-15 00:53:00",1682305,5.049,58.01,6.423,0.733,-0.476,97.47381,-7.133,-5.796,42.19,0,109.2,13.74,-6.41,20.0
"2010-02-15 00:53:30",1682306,5.886,54.34,4.083,0.623,-0.674,97.47437,-7.132,-5.779,42.08,0,109.2,13.74,-6.41,16.3
"2010-02-15 00:54:00",1682307,6.337,56.32,4.132,0.791,-0.706,97.47321,-7.135,-5.803,41.85,0,109.2,13.74,-6.41,18.3
"2010-02-15 00:54:30",1682308,5.613,58.9,3.656,0.706,-0.787,97.46407,-7.158,-5.801,41.94,0,109.2,13.74,-6.43,20.9
"2010-02-15 00:55:00",1682309,6.23,63.06,3.931,0.727,-0.898,97.45749,-7.175,-5.81,41.43,0,109.2,13.74,-6.45,25.1
"2010-02-15 00:55:30",1682310,6.672,62.72,2.941,0.705,-0.763,97.45435,-7.183,-5.814,41,0,109.2,13.74,-6.46,24.7
"2010-02-15 00:56:00",1682311,6.421,61.26,3.899,0.78,-0.676,97.45348,-7.185,-5.82,40.82,0,109.2,13.74,-6.46,23.3
"2010-02-15 00:56:30",1682312,6.161,58.45,5.491,0.714,-0.702,97.45574,-7.179,-5.815,41.13,0,109.1,13.74,-6.45,20.5
"2010-02-15 00:57:00",1682313,6.641,60.14,4.241,0.748,-0.453,97.45689,-7.176,-5.837,41.41,0,109.2,13.74,-6.45,22.1
"2010-02-15 00:57:30",1682314,6.334,65.97,4.96,0.77,-0.635,97.45802,-7.174,-5.834,41.54,0,109.1,13.74,-6.45,28.0
"2010-02-15 00:58:00",1682315,6.722,59.07,3.976,0.636,-0.439,97.46766,-7.149,-5.824,41.36,0,109.1,13.74,-6.42,21.1
"2010-02-15 00:58:30",1682316,6.547,57.97,3.623,0.747,-0.545,97.47673,-7.126,-5.808,41.25,0,109.1,13.75,-6.40,20.0
"2010-02-15 00:59:00",1682317,6.754,57.08,3.334,0.615,-0.549,97.48099,-7.115,-5.825,41.11,0,109.1,13.75,-6.39,19.1
"2010-02-15 00:59:30",1682318,6.91,58.21,2.995,0.599,-0.117,97.48128,-7.114,-5.829,40.8,0,109.1,13.75,-6.39,20.2
"2010-02-15 01:00:00",1682319,6.871,57.2,3.689,0.639,-0.159,97.48128,-7.114,-5.806,40.54,0,109.1,13.75,-6.39,19.2
"2010-02-15 01:00:30",1682320,6.783,56.15,3.826,0.619,-0.236,97.48128,-7.114,-5.803,40.41,0,109.1,13.75,-6.39,18.2
"2010-02-15 01:01:00",1682321,6.753,54.73,3.744,0.616,-0.205,97.48128,-7.114,-5.795,40.48,0,109.1,13.75,-6.39,16.7
"2010-02-15 01:01:30",1682322,6.947,55.74,3.162,0.597,-0.097,97.48128,-7.114,-5.795,40.46,0,109.1,13.75,-6.39,17.7
"2010-02-15 01:02:00",1682323,7.003,55.8,3.642,0.628,0.056,97.48128,-7.114,-5.777,40.24,0,109.1,13.75,-6.39,17.8
"2010-02-15 01:02:30",1682324,6.982,56.96,3.361,0.62,0.03,97.48128,-7.114,-5.788,40.14,0,109.1,13.75,-6.39,19.0
"2010-02-15 01:03:00",1682325,7.049,55.13,3.769,0.721,-0.063,97.48128,-7.114,-5.789,40.18,0,109.1,13.75,-6.39,17.1
"2010-02-15 01:03:30",1682326,6.649,51.21,4.125,0.937,0.047,97.48128,-7.114,-5.761,40.58,0,109.1,13.75,-6.39,13.2
"2010-02-15 01:04:00",1682327,6.854,53.34,2.869,0.71,-0.05,97.48128,-7.114,-5.794,40.29,0,109.1,13.75,-6.39,15.3
"2010-02-15 01:04:30",1682328,6.983,53.43,3.607,0.731,-0.052,97.48156,-7.114,-5.763,40.12,0,109.1,13.75,-6.39,15.4
"2010-02-15 01:05:00",1682329,7.178,53.07,3.313,0.712,-0.06,97.48128,-7.114,-5.773,40.02,0,109.1,13.76,-6.39,15.1
"2010-02-15 01:05:30",1682330,7.438,56.25,2.493,0.582,0.098,97.48156,-7.114,-5.765,40.08,0,109.1,13.75,-6.39,18.2
"2010-02-15 01:06:00",1682331,7.216,57.54,4.085,0.527,0.151,97.48128,-7.114,-5.761,40.14,0,109.1,13.75,-6.39,19.5
"2010-02-15 01:06:30",1682332,7.122,57.67,4.556,0.518,0.305,97.48354,-7.109,-5.747,40.41,0,109.1,13.75,-6.38,19.7
"2010-02-15 01:07:00",1682333,6.652,56.61,5.888,0.667,0.288,97.48298,-7.11,-5.739,40.74,0,109.1,13.75,-6.38,18.6
"2010-02-15 01:07:30",1682334,6.573,60.49,4.278,0.77,0.081,97.48695,-7.1,-5.739,40.76,0,109,13.74,-6.37,22.5
"2010-02-15 01:08:00",1682335,7.231,54.67,3.717,0.669,-0.011,97.48553,-7.104,-5.729,41.22,0,109.1,13.75,-6.38,16.7
"2010-02-15 01:08:30",1682336,7.196,56.58,3.873,0.657,0.091,97.48694,-7.1,-5.739,40.85,0,109.1,13.75,-6.37,18.6
"2010-02-15 01:09:00",1682337,6.435,57.17,2.954,0.733,-0.255,97.48775,-7.098,-5.742,40.95,0,109.1,13.75,-6.37,19.2
"2010-02-15 01:09:30",1682338,6.548,57.94,4.285,0.552,0.072,97.48969,-7.093,-5.728,41.05,0,109.1,13.75,-6.37,19.9
"2010-02-15 01:10:00",1682339,6.552,59.3,3.741,0.773,-0.312,97.48767,-7.098,-5.724,40.89,0,109.1,13.75,-6.37,21.3
"2010-02-15 01:10:30",1682340,6.477,54.98,3.876,0.671,-0.205,97.48961,-7.093,-5.732,40.81,0,109.1,13.75,-6.37,17.0
"2010-02-15 01:11:00",1682341,7.05,56.03,3.7,0.567,-0.197,97.48959,-7.093,-5.73,40.83,0,109.1,13.76,-6.37,18.0
"2010-02-15 01:11:30",1682342,7.184,57.29,3.246,0.453,-0.039,97.48903,-7.095,-5.737,40.69,0,109.1,13.76,-6.37,19.3
"2010-02-15 01:12:00",1682343,7.107,52.09,3.833,0.608,-0.041,97.49096,-7.09,-5.718,40.84,0,109.1,13.76,-6.36,14.1
"2010-02-15 01:12:30",1682344,6.238,51.67,4.619,0.631,-0.11,97.49123,-7.089,-5.717,41.16,0,109.1,13.76,-6.36,13.7
"2010-02-15 01:13:00",1682345,6.837,52.94,3.979,0.644,-0.163,97.49234,-7.086,-5.733,41.47,0,109.1,13.76,-6.36,14.9
"2010-02-15 01:13:30",1682346,7.005,53.08,3.705,0.66,-0.116,97.49454,-7.081,-5.729,41.27,0,109.1,13.76,-6.35,15.1
"2010-02-15 01:14:00",1682347,5.923,44.64,5.723,0.949,-0.306,97.49676,-7.075,-5.738,41.53,0,109.1,13.76,-6.35,6.6
"2010-02-15 01:14:30",1682348,5.712,46.91,4.826,0.89,-0.457,97.4998,-7.067,-5.728,41.88,0,109.1,13.76,-6.34,8.9
"2010-02-15 01:15:00",1682349,6.821,55.08,4.123,0.732,-0.643,97.50146,-7.063,-5.74,41.54,0,109.1,13.76,-6.34,17.1
"2010-02-15 01:15:30",1682350,7.053,57.36,3.171,0.744,-0.471,97.50174,-7.062,-5.757,41.27,0,109.1,13.76,-6.34,19.4
"2010-02-15 01:16:00",1682351,6.536,50.6,3.254,0.704,-0.37,97.50257,-7.06,-5.744,41.49,0,109.1,13.76,-6.33,12.6
"2010-02-15 01:16:30",1682352,6.693,58.67,3.981,0.724,-0.282,97.50422,-7.056,-5.753,41.42,0,109.1,13.76,-6.33,20.7
"2010-02-15 01:17:00",1682353,6.497,55.47,4.63,0.682,-0.349,97.50359,-7.058,-5.759,41.16,0,109.1,13.76,-6.33,17.5
"2010-02-15 01:17:30",1682354,6.494,49.37,3.905,0.706,-0.268,97.49368,-7.083,-5.747,41.54,0,109.1,13.76,-6.36,11.4
"2010-02-15 01:18:00",1682355,6.027,47.29,5.937,0.765,-0.294,97.48341,-7.109,-5.744,41.82,0,109.1,13.76,-6.38,9.3
"2010-02-15 01:18:30",1682356,6.049,55.84,4.045,0.688,-0.524,97.4825,-7.111,-5.763,41.99,0,109.1,13.76,-6.38,17.8
"2010-02-15 01:19:00",1682357,5.903,49.16,5.157,0.731,-0.569,97.47794,-7.123,-5.771,42.12,0,109.1,13.77,-6.40,11.2
"2010-02-15 01:19:30",1682358,5.784,54.46,3.88,0.555,-0.666,97.47932,-7.119,-5.778,42.42,0,109.1,13.77,-6.39,16.5
"2010-02-15 01:20:00",1682359,4.99,41.54,7.94,0.871,-0.996,97.47932,-7.119,-5.8,42.64,0,109.1,13.77,-6.39,3.5
"2010-02-15 01:20:30",1682360,6.128,49.5,7.212,0.846,-1.289,97.48014,-7.117,-5.788,42.65,0,109.1,13.77,-6.39,11.5
"2010-02-15 01:21:00",1682361,5.4,48.53,6.379,1.058,-1.131,97.48014,-7.117,-5.788,42.36,0,109.1,13.77,-6.39,10.5
"2010-02-15 01:21:30",1682362,5.494,52.88,6.169,0.718,-1.172,97.48013,-7.117,-5.822,42.41,0,109.1,13.77,-6.39,14.9
"2010-02-15 01:22:00",1682363,5.317,50.75,5.368,0.667,-1.115,97.47107,-7.14,-5.806,42.29,0,109.1,13.77,-6.41,12.8
"2010-02-15 01:22:30",1682364,5.702,52.06,6.688,0.711,-1.166,97.45517,-7.181,-5.804,42.1,0,109.1,13.76,-6.45,14.1
"2010-02-15 01:23:00",1682365,5.731,52.61,5.353,0.623,-1.221,97.44949,-7.195,-5.799,42.29,0,109.1,13.76,-6.47,14.6
"2010-02-15 01:23:30",1682366,5.691,53.45,3.542,0.685,-1.203,97.44637,-7.203,-5.822,42.32,0,109,13.76,-6.48,15.5
"2010-02-15 01:24:00",1682367,5.75,59.21,5.28,0.654,-1.247,97.44637,-7.203,-5.823,42.25,0,109.1,13.76,-6.48,21.2
"2010-02-15 01:24:30",1682368,5.63,57.11,6.131,0.609,-1.249,97.44637,-7.203,-5.836,42.4,0,109.1,13.76,-6.48,19.1
"2010-02-15 01:25:00",1682369,4.468,39.49,6.835,0.987,-1.4,97.44637,-7.203,-5.855,42.68,0,109.1,13.76,-6.48,1.5
"2010-02-15 01:25:30",1682370,4.774,54.37,10.81,0.845,-1.82,97.44637,-7.203,-5.911,42.84,0,109.1,13.76,-6.48,16.4
"2010-02-15 01:26:00",1682371,5.594,58.26,8.11,1.18,-3.217,97.44268,-7.213,-5.932,42.71,0,109.1,13.76,-6.49,20.3
"2010-02-15 01:26:30",1682372,4.653,52.87,7.543,1.367,-3.565,97.43247,-7.239,-6.099,42.5,0,109.1,13.76,-6.51,14.9
"2010-02-15 01:27:00",1682373,4.438,49.62,5.68,1.005,-2.252,97.42594,-7.255,-5.955,43.01,0,109.1,13.77,-6.53,11.6
"2010-02-15 01:27:30",1682374,5.159,50.58,6.562,1.148,-1.616,97.42112,-7.267,-5.953,43.36,0,109.1,13.77,-6.54,12.6
"2010-02-15 01:28:00",1682375,5.225,49.26,5.415,0.748,-0.459,97.41629,-7.28,-5.894,43.67,0,109.1,13.77,-6.55,11.3
"2010-02-15 01:28:30",1682376,4.926,39.31,8.64,0.732,-0.359,97.41232,-7.29,-5.9,43.84,0,109.1,13.78,-6.56,1.3
"2010-02-15 01:29:00",1682377,5.283,44.97,7.823,0.849,-0.646,97.41232,-7.29,-5.914,44,0,109.1,13.78,-6.56,7.0
"2010-02-15 01:29:30",1682378,5.296,43.83,7.365,0.684,-1.021,97.41232,-7.29,-5.975,43.9,0,109.1,13.78,-6.56,5.8
"2010-02-15 01:30:00",1682379,4.179,43.29,8.04,1.086,-2.045,97.41232,-7.29,-5.942,43.94,0,109.1,13.78,-6.56,5.3
"2010-02-15 01:30:30",1682380,3.998,51.24,3.17,1.224,-3.574,97.40778,-7.301,-6.172,43.61,0,109.1,13.78,-6.58,13.2
"2010-02-15 01:31:00",1682381,5.147,56.33,8.05,1.451,-2.62,97.38792,-7.352,-6.061,43.61,0,109.1,13.78,-6.63,18.3
"2010-02-15 01:31:30",1682382,5.882,54.33,5.771,0.929,-0.728,97.37998,-7.372,-5.972,43.5,0,109.1,13.79,-6.65,16.3
"2010-02-15 01:32:00",1682383,6.092,53.61,5.035,0.685,-0.057,97.37856,-7.376,-5.968,43.45,0,109.1,13.79,-6.65,15.6
"2010-02-15 01:32:30",1682384,6.005,54.76,3.406,0.717,0.155,97.37828,-7.376,-5.985,43.32,0,109.1,13.79,-6.65,16.8
"2010-02-15 01:33:00",1682385,5.492,47.07,4.708,0.851,-0.177,97.37828,-7.376,-5.982,43.39,0,109.1,13.79,-6.65,9.1
"2010-02-15 01:33:30",1682386,5.881,49.57,4.075,0.778,-0.422,97.37828,-7.376,-5.991,43.7,0,109.1,13.79,-6.65,11.6
"2010-02-15 01:34:00",1682387,5.683,52.06,4.684,0.802,-0.553,97.37856,-7.376,-6.011,44.01,0,109.1,13.79,-6.65,14.1
"2010-02-15 01:34:30",1682388,6.17,53.2,4.499,0.682,-0.593,97.37743,-7.379,-5.992,44.03,0,109.1,13.79,-6.65,15.2
"2010-02-15 01:35:00",1682389,6.052,49.41,4.74,0.702,-0.587,97.36494,-7.41,-6.007,44.16,0,109.1,13.79,-6.68,11.4
"2010-02-15 01:35:30",1682390,6.113,52.87,3.514,0.632,-0.801,97.35472,-7.436,-6.017,44.23,0,109.1,13.79,-6.71,14.9
"2010-02-15 01:36:00",1682391,6.076,53.37,3.142,0.743,-0.957,97.35243,-7.442,-6.03,44.16,0,109.1,13.79,-6.72,15.4
"2010-02-15 01:36:30",1682392,5.446,56.02,3.572,0.752,-1.004,97.34763,-7.454,-6.064,44.09,0,109.1,13.79,-6.73,18.0
"2010-02-15 01:37:00",1682393,5.72,55.63,4.13,0.817,-1.2,97.34534,-7.46,-6.058,44.19,0,109.1,13.79,-6.73,17.6
"2010-02-15 01:37:30",1682394,6.625,56.46,3.229,0.625,-0.933,97.34477,-7.462,-6.082,44.28,0,109.1,13.79,-6.74,18.5
"2010-02-15 01:38:00",1682395,6.244,57.83,5.846,0.717,-1.023,97.34505,-7.461,-6.067,44.24,0,109.1,13.79,-6.74,19.8
"2010-02-15 01:38:30",1682396,5.571,59.72,5.555,0.7,-1.082,97.34699,-7.456,-6.077,44.3,0,109.1,13.78,-6.73,21.7
"2010-02-15 01:39:00",1682397,5.916,57.1,3.127,0.714,-1.194,97.34616,-7.458,-6.079,44.61,0,109.1,13.78,-6.73,19.1
"2010-02-15 01:39:30",1682398,6.028,53.54,2.577,0.717,-1.153,97.34754,-7.455,-6.069,44.96,0,109.1,13.78,-6.73,15.5
"2010-02-15 01:40:00",1682399,6.202,56.81,3.745,0.824,-1.182,97.34671,-7.457,-6.084,45.12,0,109.1,13.78,-6.73,18.8
"2010-02-15 01:40:30",1682400,5.677,45.94,5.78,0.677,-0.925,97.3481,-7.453,-6.076,45.15,0,109.1,13.78,-6.73,7.9
"2010-02-15 01:41:00",1682401,6.219,53.45,6.215,0.875,-1.01,97.34865,-7.452,-6.076,45.17,0,109.1,13.78,-6.73,15.5
"2010-02-15 01:41:30",1682402,6.479,54.97,4.109,0.619,-0.833,97.34975,-7.449,-6.081,45.04,0,109.1,13.78,-6.72,17.0
"2010-02-15 01:42:00",1682403,6.335,56.83,3.572,0.853,-1.056,97.35224,-7.443,-6.099,44.91,0,109.1,13.78,-6.72,18.8
"2010-02-15 01:42:30",1682404,6.3,54.68,3.635,0.722,-1.041,97.35165,-7.444,-6.106,44.94,0,109.1,13.78,-6.72,16.7
"2010-02-15 01:43:00",1682405,6.325,55.39,3.369,0.718,-1.073,97.35442,-7.437,-6.119,45.05,0,109.1,13.78,-6.71,17.4
"2010-02-15 01:43:30",1682406,6.535,54.68,2.635,0.668,-0.893,97.35716,-7.43,-6.119,45.39,0,109.1,13.78,-6.70,16.7
"2010-02-15 01:44:00",1682407,6.586,55.79,2.421,0.765,-0.822,97.35353,-7.439,-6.118,45.59,0,109.1,13.79,-6.71,17.8
"2010-02-15 01:44:30",1682408,6.406,55.69,3.122,0.796,-0.895,97.35547,-7.434,-6.124,45.35,0,109.1,13.79,-6.71,17.7